CGMPW PAJN-CYDL

Flight info

Callsign CGMPW
Flight time 0h 35m
Altitude 31000
Route SSR2 SSR DCT MITOM
Aircraft PC24/L-SBDGIRWY/LB2

Departure

Time 2026-05-03 23:02
Airport Juneau International Airport (PAJN)

Arrival

Time 2026-05-03 23:38
Airport Dease Lake Airport (CYDL)
Time Latitude Longitude Altitude Speed Heading
2026-05-03 22:55 58.35801 -134.58003 30 ft 0 kts 17°
2026-05-03 23:00 58.35804 -134.57972 30 ft 3 kts 153°
2026-05-03 23:00 58.35724 -134.57933 30 ft 21 kts 164°
2026-05-03 23:00 58.35612 -134.57645 30 ft 46 kts 104°
2026-05-03 23:00 58.35527 -134.57032 29 ft 45 kts 105°
2026-05-03 23:01 58.35450 -134.56491 29 ft 40 kts 105°
2026-05-03 23:01 58.35384 -134.56005 29 ft 36 kts 105°
2026-05-03 23:01 58.35324 -134.55574 29 ft 29 kts 105°
2026-05-03 23:01 58.35256 -134.55294 29 ft 23 kts 159°
2026-05-03 23:02 58.35200 -134.55509 30 ft 40 kts 285°
2026-05-03 23:02 58.35351 -134.56603 30 ft 129 kts 284°
2026-05-03 23:02 58.35595 -134.58589 467 ft 175 kts 281°
2026-05-03 23:02 58.35787 -134.61295 924 ft 228 kts 273°
2026-05-03 23:03 58.35832 -134.64609 1614 ft 269 kts 270°
2026-05-03 23:03 58.35865 -134.68330 2366 ft 277 kts 274°
2026-05-03 23:03 58.36529 -134.71549 3010 ft 269 kts 309°
2026-05-03 23:03 58.38143 -134.73737 3638 ft 296 kts 333°
2026-05-03 23:04 58.40037 -134.74506 4205 ft 257 kts
2026-05-03 23:04 58.41672 -134.73925 4999 ft 240 kts 20°
2026-05-03 23:04 58.43160 -134.72164 5733 ft 263 kts 42°
2026-05-03 23:04 58.44168 -134.69430 6415 ft 243 kts 65°
2026-05-03 23:05 58.44545 -134.66365 7069 ft 237 kts 88°
2026-05-03 23:05 58.44465 -134.63266 7723 ft 238 kts 94°
2026-05-03 23:05 58.44360 -134.60051 8400 ft 245 kts 93°
2026-05-03 23:05 58.44266 -134.56801 9083 ft 244 kts 93°
2026-05-03 23:06 58.44175 -134.53491 9810 ft 256 kts 92°
2026-05-03 23:06 58.44075 -134.50010 10511 ft 267 kts 92°
2026-05-03 23:06 58.43973 -134.46471 11156 ft 267 kts 92°
2026-05-03 23:06 58.43867 -134.42930 11823 ft 270 kts 92°
2026-05-03 23:07 58.43764 -134.39323 12501 ft 273 kts 93°
2026-05-03 23:07 58.43655 -134.35693 13194 ft 277 kts 93°
2026-05-03 23:07 58.43545 -134.32011 13912 ft 279 kts 93°
2026-05-03 23:07 58.43430 -134.28284 14578 ft 284 kts 92°
2026-05-03 23:08 58.43315 -134.24488 15224 ft 290 kts 92°
2026-05-03 23:08 58.43197 -134.20697 15862 ft 289 kts 92°
2026-05-03 23:08 58.43078 -134.16841 16533 ft 295 kts 92°
2026-05-03 23:08 58.42953 -134.12893 17225 ft 300 kts 92°
2026-05-03 23:09 58.42826 -134.08897 17930 ft 303 kts 92°
2026-05-03 23:09 58.42696 -134.04872 18645 ft 305 kts 92°
2026-05-03 23:09 58.42564 -134.00803 19275 ft 309 kts 92°
2026-05-03 23:09 58.42430 -133.96683 19912 ft 313 kts 92°
2026-05-03 23:10 58.42291 -133.92523 20614 ft 316 kts 92°
2026-05-03 23:10 58.42149 -133.88299 21278 ft 321 kts 92°
2026-05-03 23:10 58.42006 -133.84039 21956 ft 322 kts 92°
2026-05-03 23:10 58.41859 -133.79744 22645 ft 326 kts 92°
2026-05-03 23:11 58.41710 -133.75394 23373 ft 333 kts 92°
2026-05-03 23:11 58.41554 -133.70953 24083 ft 336 kts 93°
2026-05-03 23:11 58.41394 -133.66475 24703 ft 341 kts 93°
2026-05-03 23:11 58.41237 -133.61974 25325 ft 345 kts 93°
2026-05-03 23:12 58.41074 -133.57382 25981 ft 349 kts 93°
2026-05-03 23:12 58.40905 -133.52735 26636 ft 352 kts 93°
2026-05-03 23:12 58.40732 -133.48049 27311 ft 355 kts 93°
2026-05-03 23:12 58.40558 -133.43340 27983 ft 356 kts 92°
2026-05-03 23:13 58.40383 -133.38621 28664 ft 357 kts 92°
2026-05-03 23:13 58.40203 -133.33887 29386 ft 358 kts 92°
2026-05-03 23:13 58.40023 -133.29153 30110 ft 358 kts 92°
2026-05-03 23:13 58.39844 -133.24430 30798 ft 357 kts 92°
2026-05-03 23:14 58.39659 -133.19688 31295 ft 362 kts 92°
2026-05-03 23:14 58.39466 -133.14803 31421 ft 381 kts 92°
2026-05-03 23:14 58.39263 -133.09639 31431 ft 401 kts 93°
2026-05-03 23:14 58.39050 -133.04319 31437 ft 412 kts 93°
2026-05-03 23:15 58.38825 -132.98821 31434 ft 423 kts 92°
2026-05-03 23:15 58.38596 -132.93167 31440 ft 439 kts 92°
2026-05-03 23:15 58.38352 -132.87230 31443 ft 454 kts 92°
2026-05-03 23:15 58.38096 -132.81132 31409 ft 467 kts 93°
2026-05-03 23:16 58.37830 -132.74897 31411 ft 477 kts 93°
2026-05-03 23:16 58.37558 -132.68525 31400 ft 488 kts 93°
2026-05-03 23:16 58.37279 -132.62086 31405 ft 496 kts 93°
2026-05-03 23:17 58.36692 -132.48795 31387 ft 507 kts 93°
2026-05-03 23:17 58.36086 -132.35405 31346 ft 508 kts 93°
2026-05-03 23:18 58.35573 -132.24270 31322 ft 508 kts 93°
2026-05-03 23:18 58.34944 -132.10861 31316 ft 509 kts 93°
2026-05-03 23:18 58.34618 -132.04130 31043 ft 508 kts 92°
2026-05-03 23:19 58.34298 -131.97538 30657 ft 491 kts 93°
2026-05-03 23:19 58.33991 -131.91160 30276 ft 473 kts 92°
2026-05-03 23:19 58.33689 -131.85075 29788 ft 463 kts 93°
2026-05-03 23:19 58.33383 -131.79008 29336 ft 460 kts 93°
2026-05-03 23:20 58.33074 -131.72858 28874 ft 462 kts 92°
2026-05-03 23:20 58.32771 -131.66854 28567 ft 461 kts 92°
2026-05-03 23:20 58.32457 -131.60735 27972 ft 467 kts 93°
2026-05-03 23:20 58.32456 -131.54627 27327 ft 456 kts 76°
2026-05-03 23:21 58.33232 -131.48881 26699 ft 442 kts 65°
2026-05-03 23:21 58.34507 -131.43662 26017 ft 430 kts 56°
2026-05-03 23:21 58.35824 -131.38606 25454 ft 423 kts 58°
2026-05-03 23:21 58.37074 -131.33554 24901 ft 419 kts 59°
2026-05-03 23:22 58.39541 -131.23590 23796 ft 412 kts 58°
2026-05-03 23:22 58.40772 -131.18690 23211 ft 407 kts 58°
2026-05-03 23:22 58.41973 -131.13843 22683 ft 401 kts 58°
2026-05-03 23:23 58.43157 -131.09037 22156 ft 398 kts 58°
2026-05-03 23:23 58.44340 -131.04261 21638 ft 396 kts 58°
2026-05-03 23:23 58.45497 -130.99571 21130 ft 394 kts 59°
2026-05-03 23:23 58.46657 -130.94851 20613 ft 391 kts 59°
2026-05-03 23:24 58.47805 -130.90171 20106 ft 387 kts 59°
2026-05-03 23:24 58.48942 -130.85531 19599 ft 382 kts 59°
2026-05-03 23:24 58.50047 -130.80995 19106 ft 370 kts 59°
2026-05-03 23:24 58.51115 -130.76606 18635 ft 358 kts 59°
2026-05-03 23:25 58.52157 -130.72339 18126 ft 349 kts 59°
2026-05-03 23:25 58.53170 -130.68174 17669 ft 342 kts 59°
2026-05-03 23:25 58.54162 -130.64085 17118 ft 332 kts 59°
2026-05-03 23:25 58.55109 -130.60156 16663 ft 323 kts 59°
2026-05-03 23:26 58.56021 -130.56387 16356 ft 310 kts 59°
2026-05-03 23:26 58.56919 -130.52669 15921 ft 300 kts 59°
2026-05-03 23:26 58.57783 -130.49079 15453 ft 296 kts 59°
2026-05-03 23:26 58.58626 -130.45573 15181 ft 284 kts 59°
2026-05-03 23:27 58.59457 -130.42124 14821 ft 287 kts 59°
2026-05-03 23:27 58.60283 -130.38676 14335 ft 283 kts 59°
2026-05-03 23:27 58.61089 -130.35298 14058 ft 274 kts 59°
2026-05-03 23:27 58.61883 -130.31968 13707 ft 276 kts 59°
2026-05-03 23:28 58.62692 -130.28597 13322 ft 278 kts 60°
2026-05-03 23:28 58.63498 -130.25213 12957 ft 278 kts 61°
2026-05-03 23:28 58.64295 -130.21858 12604 ft 274 kts 61°
2026-05-03 23:28 58.65080 -130.18542 12247 ft 271 kts 61°
2026-05-03 23:29 58.65849 -130.15304 11895 ft 270 kts 62°
2026-05-03 23:29 58.66623 -130.12031 11535 ft 268 kts 62°
2026-05-03 23:29 58.67392 -130.08779 11190 ft 266 kts 63°
2026-05-03 23:29 58.68154 -130.05553 10848 ft 264 kts 63°
2026-05-03 23:30 58.68908 -130.02349 10500 ft 262 kts 63°
2026-05-03 23:30 58.69631 -129.99152 10132 ft 259 kts 70°
2026-05-03 23:30 58.69815 -129.95735 9767 ft 256 kts 92°
2026-05-03 23:30 58.69429 -129.92406 9425 ft 256 kts 113°
2026-05-03 23:31 58.68637 -129.89341 9095 ft 257 kts 118°
2026-05-03 23:31 58.67824 -129.86294 8700 ft 249 kts 118°
2026-05-03 23:31 58.67008 -129.83570 8279 ft 221 kts 135°
2026-05-03 23:31 58.65802 -129.81938 8027 ft 207 kts 159°
2026-05-03 23:32 58.64478 -129.81241 7747 ft 194 kts 180°
2026-05-03 23:32 58.63177 -129.81420 7492 ft 183 kts 199°
2026-05-03 23:32 58.62033 -129.82319 7250 ft 174 kts 213°
2026-05-03 23:32 58.60963 -129.83374 7020 ft 170 kts 213°
2026-05-03 23:33 58.59919 -129.84384 6795 ft 166 kts 213°
2026-05-03 23:33 58.58891 -129.85369 6569 ft 163 kts 212°
2026-05-03 23:33 58.57891 -129.86345 6354 ft 160 kts 212°
2026-05-03 23:33 58.56900 -129.87302 6141 ft 157 kts 212°
2026-05-03 23:34 58.55947 -129.88218 5914 ft 149 kts 212°
2026-05-03 23:34 58.55038 -129.89092 5703 ft 143 kts 211°
2026-05-03 23:34 58.54169 -129.89933 5505 ft 139 kts 210°
2026-05-03 23:34 58.53315 -129.90761 5309 ft 139 kts 210°
2026-05-03 23:35 58.52440 -129.91588 5136 ft 141 kts 209°
2026-05-03 23:35 58.51564 -129.92476 4949 ft 144 kts 207°
2026-05-03 23:35 58.50668 -129.93301 4754 ft 144 kts 207°
2026-05-03 23:35 58.49777 -129.94159 4602 ft 141 kts 210°
2026-05-03 23:36 58.48901 -129.95004 4418 ft 143 kts 210°
2026-05-03 23:36 58.48015 -129.95852 4187 ft 140 kts 211°
2026-05-03 23:36 58.47136 -129.96699 3923 ft 142 kts 212°
2026-05-03 23:36 58.46270 -129.97536 3695 ft 136 kts 213°
2026-05-03 23:37 58.45429 -129.98325 3472 ft 134 kts 212°
2026-05-03 23:37 58.44601 -129.99116 3251 ft 135 kts 210°
2026-05-03 23:37 58.43813 -129.99856 3105 ft 118 kts 213°
2026-05-03 23:37 58.43206 -130.00868 2815 ft 123 kts 229°
2026-05-03 23:38 58.42704 -130.02017 2665 ft 103 kts 231°
2026-05-03 23:38 58.42397 -130.02781 2646 ft 27 kts 247°
2026-05-03 23:38 58.42360 -130.02791 2645 ft 17 kts 41°
2026-05-03 23:38 58.42452 -130.02537 2646 ft 24 kts 119°
2026-05-03 23:39 58.42492 -130.02304 2649 ft 19 kts 51°
2026-05-03 23:39 58.42513 -130.02207 2647 ft 0 kts 118°